Weather History for Cullman Regional Airport, LA

Change the Weather History Date:

Wednesday, January 8, 2014

  Actual Average Record
Temperature  
Mean Temperature 26 °F -  
Max Temperature 41 °F - - ()
Min Temperature 12 °F - - ()
Degree Days  
Heating Degree Days 38    
Moisture  
Dew Point 9 °F    
Average Humidity 49    
Maximum Humidity 84    
Minimum Humidity 26    
Precipitation  
Precipitation 0.00 in - - ()
Sea Level Pressure  
Sea Level Pressure 30.47 in    
Wind  
Wind Speed 2 mph (East)    
Max Wind Speed 7 mph    
Max Gust Speed -    
Visibility 10 miles    
Events      
T = Trace of Precipitation, MM = Missing Value Source: NWS Daily Summary

Daily Weather History Graph

Daily Weather History Graph

Search for Another Location

Airport:

Trip Planner

Search our weather history database for the weather conditions in past years. The results will help you decide how hot, cold, wet, or windy it might be!

Date:

Astronomy

Jan. 08, 2014 Rise Set
Actual Time 6:54 AM CST 4:54 PM CST
Civil Twilight 6:26 AM CST 5:21 PM CST
Nautical Twilight 5:55 AM CST 5:53 PM CST
Astronomical Twilight 5:25 AM CST 6:23 PM CST
Moon 11:38 AM CST (1/8) 12:08 AM CST (1/8)
Length of Visible Light 10h 55m
Length of Day
10h 00m
First Quarter, 56% of the Moon is Illuminated
Jan 8
First Quarter
Jan 15
Full
Jan 23
Last Quarter
Jan 30
New
Feb 6
First Quarter

Hourly Weather History & Observations

Time (CST) Temp. Windchill Dew Point Humidity Pressure Visibility Wind Dir Wind Speed Gust Speed Precip Events Conditions
12:15 AM 16.3 °F 10.8 °F 3.9 °F 58% 30.47 in 10.0 mi South 3.5 mph - N/A   Clear
12:35 AM 16.5 °F - 3.9 °F 58% 30.47 in 10.0 mi Calm Calm - N/A   Clear
12:55 AM 16.0 °F - 4.5 °F 60% 30.48 in 10.0 mi Calm Calm - N/A   Clear
1:15 AM 15.6 °F - 5.4 °F 64% 30.48 in 10.0 mi Calm Calm - N/A   Clear
1:35 AM 15.4 °F - 5.5 °F 65% 30.48 in 10.0 mi Calm Calm - N/A   Clear
1:55 AM 15.6 °F - 5.7 °F 65% 30.48 in 10.0 mi Calm Calm - N/A   Clear
2:15 AM 15.1 °F - 7.3 °F 71% 30.48 in 10.0 mi Calm Calm - N/A   Clear
2:35 AM 14.7 °F - 8.1 °F 75% 30.48 in 10.0 mi Calm Calm - N/A   Clear
2:55 AM 13.8 °F - 8.8 °F 80% 30.49 in 10.0 mi Calm Calm - N/A   Clear
3:15 AM 13.3 °F - 9.1 °F 84% 30.49 in 10.0 mi Calm Calm - N/A   Clear
3:35 AM 13.1 °F - 9.0 °F 84% 30.48 in 10.0 mi Calm Calm - N/A   Clear
3:55 AM 12.9 °F - 8.1 °F 81% 30.48 in 10.0 mi Calm Calm - N/A   Clear
4:15 AM 13.3 °F - 8.6 °F 82% 30.48 in 10.0 mi Calm Calm - N/A   Clear
4:35 AM 13.6 °F - 8.2 °F 79% 30.48 in 10.0 mi Calm Calm - N/A   Clear
4:55 AM 13.3 °F - 7.7 °F 78% 30.48 in 10.0 mi Calm Calm - N/A   Clear
5:15 AM 12.7 °F - 7.9 °F 81% 30.49 in 10.0 mi Calm Calm - N/A   Clear
5:35 AM 12.4 °F - 7.5 °F 81% 30.49 in 10.0 mi Calm Calm - N/A   Clear
5:55 AM 12.2 °F - 7.9 °F 83% 30.50 in 10.0 mi Calm Calm - N/A   Clear
6:15 AM 12.2 °F - 7.5 °F 82% 30.50 in 10.0 mi Calm Calm - N/A   Clear
6:35 AM 12.4 °F - 7.7 °F 82% 30.50 in 10.0 mi Calm Calm - N/A   Clear
6:55 AM 12.6 °F - 7.9 °F 82% 30.51 in 10.0 mi Calm Calm - N/A   Clear
7:15 AM 12.7 °F - 8.4 °F 83% 30.52 in 10.0 mi Calm Calm - N/A   Clear
7:35 AM 14.2 °F - 9.0 °F 80% 30.53 in 10.0 mi Calm Calm - N/A   Clear
7:55 AM 16.2 °F - 8.6 °F 72% 30.54 in 10.0 mi Calm Calm - N/A   Clear
8:15 AM 19.4 °F - 7.3 °F 60% 30.55 in 10.0 mi Calm Calm - N/A   Clear
8:35 AM 21.7 °F 17.0 °F 6.8 °F 53% 30.55 in 10.0 mi ENE 3.5 mph - N/A   Clear
8:55 AM 24.1 °F 19.7 °F 5.7 °F 46% 30.55 in 10.0 mi ENE 3.5 mph - N/A   Clear
9:15 AM 26.1 °F 21.9 °F 5.5 °F 42% 30.55 in 10.0 mi ENE 3.5 mph - N/A   Clear
9:35 AM 27.9 °F 22.6 °F 5.5 °F 39% 30.54 in 10.0 mi East 4.6 mph - N/A   Clear
9:55 AM 29.3 °F 25.6 °F 5.7 °F 37% 30.55 in 10.0 mi NE 3.5 mph - N/A   Clear
10:15 AM 31.3 °F - 8.1 °F 38% 30.55 in 10.0 mi Calm Calm - N/A   Clear
10:35 AM 31.8 °F - 6.8 °F 35% 30.54 in 10.0 mi Calm Calm - N/A   Clear
10:55 AM 32.5 °F 29.3 °F 6.4 °F 33% 30.52 in 10.0 mi East 3.5 mph - N/A   Clear
11:15 AM 34.0 °F 31.0 °F 8.1 °F 34% 30.51 in 10.0 mi ENE 3.5 mph - N/A   Clear
11:35 AM 35.2 °F 32.4 °F 8.6 °F 33% 30.49 in 10.0 mi ENE 3.5 mph - N/A   Clear
11:55 AM 36.5 °F 33.9 °F 7.3 °F 30% 30.48 in 10.0 mi NE 3.5 mph - N/A   Clear
12:15 PM 37.8 °F 35.3 °F 7.7 °F 29% 30.47 in 10.0 mi NE 3.5 mph - N/A   Clear
12:35 PM 39.0 °F 35.7 °F 7.9 °F 28% 30.45 in 10.0 mi ESE 4.6 mph - N/A   Clear
12:55 PM 39.6 °F 37.4 °F 8.2 °F 27% 30.45 in 10.0 mi NNE 3.5 mph - N/A   Clear
1:15 PM 39.7 °F - 8.2 °F 27% 30.44 in 10.0 mi Calm Calm - N/A   Clear
1:35 PM 40.5 °F 37.3 °F 9.0 °F 27% 30.44 in 10.0 mi East 4.6 mph - N/A   Clear
1:55 PM 41.4 °F 38.4 °F 9.1 °F 27% 30.43 in 10.0 mi ENE 4.6 mph - N/A   Clear
2:15 PM 41.5 °F 39.6 °F 9.9 °F 27% 30.42 in 10.0 mi NE 3.5 mph - N/A   Clear
2:35 PM 41.0 °F 39.0 °F 10.2 °F 28% 30.43 in 10.0 mi SE 3.5 mph - N/A   Clear
2:55 PM 40.8 °F 37.8 °F 10.9 °F 29% 30.43 in 10.0 mi SE 4.6 mph - N/A   Clear
3:15 PM 40.6 °F 37.5 °F 11.1 °F 30% 30.43 in 10.0 mi ESE 4.6 mph - N/A   Clear
3:35 PM 40.5 °F 37.3 °F 10.6 °F 29% 30.42 in 10.0 mi SE 4.6 mph - N/A   Clear
3:55 PM 40.5 °F 38.4 °F 8.4 °F 27% 30.42 in 10.0 mi ESE 3.5 mph - N/A   Clear
4:15 PM 40.1 °F 38.0 °F 7.7 °F 26% 30.41 in 10.0 mi ESE 3.5 mph - N/A   Clear
4:35 PM 39.0 °F 36.8 °F 7.3 °F 27% 30.40 in 10.0 mi ESE 3.5 mph - N/A   Clear
4:55 PM 37.8 °F - 8.6 °F 30% 30.40 in 10.0 mi Calm Calm - N/A   Clear
5:15 PM 36.5 °F - 9.9 °F 33% 30.40 in 10.0 mi Calm Calm - N/A   Clear
5:35 PM 36.0 °F - 10.4 °F 35% 30.41 in 10.0 mi Calm Calm - N/A   Clear
5:55 PM 35.8 °F 33.0 °F 10.9 °F 36% 30.41 in 10.0 mi SE 3.5 mph - N/A   Clear
6:15 PM 35.4 °F - 11.3 °F 37% 30.42 in 10.0 mi Calm Calm - N/A   Clear
6:35 PM 35.2 °F - 10.9 °F 37% 30.43 in 10.0 mi Calm Calm - N/A   Clear
6:55 PM 32.9 °F - 12.6 °F 43% 30.43 in 10.0 mi Calm Calm - N/A   Clear
7:15 PM 30.7 °F 27.3 °F 16.0 °F 54% 30.43 in 10.0 mi ESE 3.5 mph - N/A   Clear
7:35 PM 32.0 °F 27.5 °F 14.7 °F 49% 30.42 in 10.0 mi SE 4.6 mph - N/A   Clear
7:55 PM 35.2 °F 31.2 °F 9.0 °F 34% 30.42 in 10.0 mi SE 4.6 mph - N/A   Clear
8:15 PM 35.4 °F 31.5 °F 7.9 °F 32% 30.42 in 10.0 mi SE 4.6 mph - N/A   Clear
8:35 PM 34.9 °F 30.8 °F 8.6 °F 34% 30.43 in 10.0 mi ESE 4.6 mph - N/A   Clear
8:55 PM 34.7 °F 28.8 °F 8.6 °F 34% 30.42 in 10.0 mi ESE 6.9 mph - N/A   Clear
9:15 PM 34.7 °F 29.6 °F 8.8 °F 34% 30.42 in 10.0 mi ESE 5.8 mph - N/A   Clear
9:35 PM 34.5 °F 31.6 °F 9.0 °F 35% 30.43 in 10.0 mi SE 3.5 mph - N/A   Clear
9:55 PM 34.9 °F 32.0 °F 9.1 °F 34% 30.43 in 10.0 mi East 3.5 mph - N/A   Clear
10:15 PM 34.7 °F - 8.6 °F 34% 30.43 in 10.0 mi Calm Calm - N/A   Clear
10:35 PM 34.5 °F - 9.1 °F 35% 30.43 in 10.0 mi Calm Calm - N/A   Clear
10:55 PM 33.6 °F - 12.2 °F 41% 30.44 in 10.0 mi Calm Calm - N/A   Clear
11:15 PM 32.4 °F - 14.5 °F 48% 30.44 in 10.0 mi Calm Calm - N/A   Clear
11:35 PM 32.9 °F - 12.9 °F 44% 30.43 in 10.0 mi Calm Calm - N/A   Clear
11:55 PM 34.2 °F 31.2 °F 9.5 °F 36% 30.42 in 10.0 mi East 3.5 mph - N/A   Clear